Weather in Kazinka

Russia / Belgorod Oblast     50°14′13″N   37°50′26″E
temp.,
°C
wind,
m/s
gust,
m/s
humid.,
%
clouds,
%
prec.,
mm/h
press.,
hPa
HPBL,
m
18 august, thu
thu1800:00+21ene613555 0.1 1008415
03:00+18ne5116076 0.3 1008254
06:00+18ne4957100 0.0 1008209
09:00+23ene4646100 0.0 1008337
12:00+29ne333347 0.0 10081016
15:00+31nne222931 0.0 10071788
18:00+30nne353521 0.1 1007244
21:00+25ene713504 0.1 1008491
19 august, fri
fri1900:00+20ne611740 0.0 1009332
03:00+18ne612820 0.0 1010349
06:00+17ne611835 0.0 1010375
09:00+23ene67585 0.0 1011707
12:00+27e565477 0.1 10111370
15:00+26ene6758100 0.6 10121056
18:00+22ne8127135 0.9 1012681
21:00+18ene31085100 3.4 1013231
20 august, sat
sat2000:00+18e3688100 0.1 1014117
03:00+17e3993100 0.1 1014214
06:00+17ese51473100 0.3 1015382
09:00+20e51258100 0.6 1017524
12:00+26ese71035100 0.0 10161203
15:00+26e61031100 0.0 1016950
18:00+26e4534100 0.0 1014102
21:00+26ese7133392 0.0 1016855
21 august, sun
sun2100:00+25ese91622100 0.0 1016667
03:00+23ese61329100 0.0 1017629
06:00+22ese61329100 0.0 1017561
09:00+23ese71129100 0.0 1018735
12:00+28ese81020100 0.0 10171402
15:00+30ese81117100 0.0 10162137
18:00+28ese71219100 0.0 1016735
21:00+24ene6152075 0.0 1016377
22 august, mon
mon2200:00+22e61519100 0.0 1016346
03:00+21e5132189 0.0 1016328
06:00+21e61431100 0.0 1017430
09:00+24e81435100 0.0 1017858
12:00+29ese91327100 0.0 10161934
15:00+31ese91221100 0.0 10152648
18:00+30e71222100 0.0 1016795
21:00+23e4123034 0.0 1017192